Home   Weather   Iqaluit   Past weeks

Flag for Canada Past Weather in Iqaluit, Nunavut, Canada — Yesterday and Last 2 Weeks

Now
30 °F

Passing clouds.


Feels Like: 23 °F
Forecast: 13 / 32 °F
Wind: 7 mph from North

Location: Iqaluit

Current Time: May 25, 2017 at 12:56:30 am

Latest Report: May 25, 2017 at 12:00 am


Visibility: 30 mi

Pressure: 30.05 "Hg

Humidity: 69%

Dew Point: 21 °F

Location of IqaluitLocation

Past Weather in Iqaluit — Graph

°F

Iqaluit Temperature Yesterday

Maximum temperature yesterday: 32 °F (at 2:00 pm)
Minimum temperature yesterday: 23 °F (at 1:00 am)
Average temperature yesterday: 28 °F

High & Low Weather Summary for the Past Weeks

 TemperatureHumidityPressure
High37 °F (May 11, 6:00 pm)100% (May 9, 11:46 pm)30.59 "Hg (May 9, 11:46 pm)
Low19 °F (May 23, 3:00 am)51% (May 24, 6:00 pm)29.67 "Hg (May 15, 12:38 pm)
Average30 °F84%30.09 "Hg
* Reported May 9 11:10 pm — May 24 11:00 pm, Iqaluit. Weather by CustomWeather, © 2017

Note: Actual official high and low records may vary slightly from our data, if they occured in-between our weather recording intervals... More about our weather records

Advertising

Iqaluit Weather History for the Previous 24 Hours

Scroll right to see more
 ConditionsComfort  
Time TempWeatherWind HumidityBarometerVisibility
11:00 pm
Wed, May 24
30 °FPassing clouds.9 mph64%30.05 "Hg30 mi
10:00 pm30 °FPartly sunny.9 mph64%30.04 "Hg30 mi
9:00 pm32 °FPartly sunny.5 mph55%30.04 "Hg30 mi
8:00 pm32 °FPassing clouds.5 mph51%30.03 "Hg30 mi
7:00 pm32 °FPassing clouds.6 mph55%30.03 "Hg30 mi
6:00 pm32 °FPassing clouds.7 mph51%30.02 "Hg30 mi
5:00 pm32 °FPassing clouds.6 mph55%30.02 "Hg30 mi
4:00 pm32 °FScattered clouds.3 mph64%30.02 "Hg30 mi
3:00 pm32 °FScattered clouds.6 mph64%30.02 "Hg30 mi
2:00 pm32 °FScattered clouds.6 mph64%30.02 "Hg30 mi
1:00 pm30 °FPassing clouds.7 mph64%30.01 "Hg30 mi
12:00 pm30 °FScattered clouds.3 mph64%30.01 "Hg30 mi
11:00 am28 °FScattered clouds.5 mph69%30.01 "Hg30 mi
10:00 am28 °FPassing clouds.5 mph64%30.01 "Hg30 mi
9:00 am28 °FPassing clouds.2 mph64%30.01 "Hg30 mi
8:00 am27 °FPassing clouds.2 mph74%30.01 "Hg30 mi
7:00 am27 °FPassing clouds.6 mph64%30.01 "Hg30 mi
6:00 am25 °FPassing clouds.6 mph69%30.01 "Hg30 mi
5:00 am23 °FPassing clouds.5 mph74%30.00 "Hg30 mi
4:00 am23 °FPassing clouds.5 mph68%30.00 "Hg30 mi
3:00 am23 °FPassing clouds.7 mph74%30.00 "Hg30 mi
2:00 am25 °FPassing clouds.3 mph69%30.00 "Hg30 mi
1:00 am23 °FPassing clouds.No wind80%29.99 "Hg30 mi
12:00 am25 °FPassing clouds.5 mph74%30.00 "Hg30 mi
Weather by CustomWeather, © 2017

See weather overviewHow to use our weather pages